Miscellaneous Local Product
Issued by NWS Hastings, NE

Home | Current Version | Previous Version | Text Only | Print | Product List | Glossary Off
Versions: 1 2 3 4 5 6 7 8 9 10 11 12 13 14 15 16 17 18 19 20 21 22 23 24 25 26 27 28 29 30 31 32 33 34 35 36 37 38 39 40 41 42 43 44 45 46 47 48 49 50

837
AXUS43 KGID 092002
MISGRI

GID CWA HOURLY WEATHER ROUNDUP
NATIONAL WEATHER SERVICE HASTINGS NE
200 PM CST TUE FEB 09 2016

NOTE: "FAIR" INDICATES FEW OR NO CLOUDS BELOW 12,000 FEET WITH NO
SIGNIFICANT WEATHER AND/OR OBSTRUCTIONS TO VISIBILITY.

...SOUTH CENTRAL NEBRASKA...

CITY           SKY/WX    TMP DP  RH WIND       PRES   REMARKS
GRAND ISLAND   CLOUDY    25  11  55 N12       30.29F WCI  14
HASTINGS       CLOUDY    27  11  51 N15       30.28F WCI  15
ORD            CLOUDY    28  10  46 N6        30.24F WCI  22
YORK           CLOUDY    27  12  54 N15G22    30.29F WCI  15
AURORA         CLOUDY    27  11  53 N14G23    30.29F WCI  15
LEXINGTON      CLOUDY    30  16  54 N7        30.28F WCI  23
HOLDREGE       CLOUDY    28  17  61 N6        30.28F WCI  22
HEBRON         CLOUDY    28  11  49 N17G24    30.30F WCI  15

...NEBRASKA PANHANDLE...

CITY           SKY/WX    TMP DP  RH WIND       PRES   REMARKS
CHADRON        CLOUDY    49  32  52 NW16G22   30.19F
ALLIANCE       CLOUDY    38  31  76 W10       30.20F WCI  31
SCOTTSBLUFF    SUNNY     50  32  50 NW18G30   30.23F
SIDNEY         CLOUDY    43  30  60 NW18      30.24F

...WESTERN AND NORTH CENTRAL NEBRASKA...

CITY           SKY/WX    TMP DP  RH WIND       PRES   REMARKS
VALENTINE      CLOUDY    30  17  58 SW9       30.21F WCI  22
AINSWORTH      CLOUDY    29  11  45 SW8       30.21F WCI  21
ONEILL         CLOUDY    28  10  46 W6        30.24F WCI  22
BROKEN BOW     CLOUDY    27  11  51 CALM      30.24F
IMPERIAL       CLOUDY    39  27  62 CALM      30.23F
NORTH PLATTE   CLOUDY    35  17  47 CALM      30.24F
MCCOOK         CLOUDY    38  19  46 CALM      30.26F

...EASTERN NEBRASKA...

CITY           SKY/WX    TMP DP  RH WIND       PRES   REMARKS
NORFOLK        CLOUDY    27  13  55 NW13      30.22F WCI  16
SO SIOUX CITY  CLOUDY    22   8  55 NW17      30.24F WCI   8
TEKAMAH        PTSUNNY   30   7  37 N10       30.25F WCI  21
COLUMBUS       CLOUDY    27   7  43 NW14      30.26F WCI  15
ALBION         CLOUDY    27  11  50 NW12      30.26F WCI  16
OMAHA EPPLEY   MOSUNNY   21   9  59 NW17      30.24F WCI   7
OFFUTT AFB     SUNNY     23   4  45 NW13G25   30.23F WCI  11
MILLARD        SUNNY     21   6  52 NW12      30.26F WCI   9
LINCOLN        CLOUDY    24  10  55 N14       30.28F WCI  12
NEBRASKA CITY  SUNNY     22   5  47 N16G26    30.25S WCI   8
BEATRICE       CLOUDY    26   9  49 N20       30.28F WCI  12
FALLS CITY     SUNNY     25   5  42 NW20G28   30.24F WCI  11

...NORTHERN KANSAS...

CITY           SKY/WX    TMP DP  RH WIND       PRES   REMARKS
GOODLAND       SUNNY     44  28  53 W10       30.25F
HILL CITY      CLOUDY    37  21  52 N8        30.29F WCI  31
NORTON         CLOUDY    36  19  51 N3        30.26F
PHILLIPSBURG   CLOUDY    34  18  51 CALM      30.31F
SMITH CENTER   CLOUDY    30  18  59 N13       30.31F WCI  20
BELOIT         CLOUDY    30  12  47 N14       30.31F WCI  20
HAYS           CLOUDY    37  18  44 N14       30.29F WCI  29
RUSSELL        CLOUDY    35  20  54 N16       30.28F WCI  25
CONCORDIA      SUNNY     30  10  43 N20G30    30.30F WCI  17
SALINA         SUNNY     39  12  33 N28       30.29F WCI  28
TOPEKA         SUNNY     32   1  26 NW22G36   30.24S WCI  19



USA.gov is the U.S. government's official web portal to all federal, state and local government web resources and services.